Time_in_sec,gx,gy,gz
1312471788.74329114,0.03830376,-0.01194991,-0.99919469
1312471788.79645109,0.03831102,-0.01211000,-0.99919248
1312471788.84330058,0.03837080,-0.01230142,-0.99918785
1312471788.89530492,0.03837644,-0.01226318,-0.99918810
1312471788.94329619,0.03846140,-0.01199509,-0.99918809
1312471788.99529028,0.03859578,-0.01213273,-0.99918125
1312471789.04329515,0.03863694,-0.01211491,-0.99917987
1312471789.09533334,0.03810646,-0.01133272,-0.99920942
1312471789.14329004,0.03801855,-0.01136857,-0.99921236
1312471789.19533348,0.03821874,-0.01143414,-0.99920398
1312471789.24443293,0.03833151,-0.01140057,-0.99920004
1312471789.29642630,0.03839264,-0.01137840,-0.99919795
1312471789.34339380,0.03865529,-0.01149659,-0.99918647
1312471789.39536524,0.03839640,-0.01137613,-0.99919783
1312471789.44332790,0.03840395,-0.01136025,-0.99919772
1312471789.49529982,0.03856639,-0.01122584,-0.99919298
1312471789.54331040,0.03872946,-0.01117893,-0.99918720
1312471789.59642577,0.03924361,-0.01134260,-0.99916529
1312471789.64330816,0.03893393,-0.01130494,-0.99917784
1312471789.69542527,0.03876013,-0.01142421,-0.99918324
1312471789.74428511,0.03851776,-0.01160811,-0.99919049
1312471789.79530692,0.03858744,-0.01155142,-0.99918846
1312471789.84342647,0.03794336,-0.01103306,-0.99921898
1312471789.89531779,0.03801701,-0.01119961,-0.99921433
1312471789.94332099,0.03808778,-0.01123941,-0.99921119
1312471789.99644065,0.03782530,-0.01100861,-0.99922373
1312471790.04333329,0.03786028,-0.01088093,-0.99922380
1312471790.09543085,0.03825620,-0.01103222,-0.99920706
1312471790.14333701,0.03797832,-0.01104321,-0.99921754
1312471790.19267297,0.03791651,-0.01098302,-0.99922055
1312471790.24442720,0.03778701,-0.01087303,-0.99922666
1312471790.29532027,0.03791152,-0.01094239,-0.99922119
1312471790.34330487,0.03772147,-0.01130959,-0.99922429
1312471790.39527655,0.03778758,-0.01135171,-0.99922132
1312471790.44430661,0.03771500,-0.01135769,-0.99922399
1312471790.49539876,0.03784450,-0.01106856,-0.99922234
1312471790.54329324,0.03796713,-0.01120114,-0.99921621
1312471790.59639812,0.03794058,-0.01098799,-0.99921958
1312471790.64435339,0.03780471,-0.01089934,-0.99922570
1312471790.69630766,0.03774582,-0.01091336,-0.99922778
1312471790.74437952,0.03752405,-0.01075074,-0.99923789
1312471790.79642773,0.03758649,-0.01064067,-0.99923672
1312471790.84328651,0.03804773,-0.01094222,-0.99921601
1312471790.89631772,0.03803409,-0.01121009,-0.99921356
1312471790.94443560,0.03789093,-0.01127338,-0.99921829
1312471790.99543571,0.03797334,-0.01135767,-0.99921421
1312471791.04330444,0.03801796,-0.01125900,-0.99921363
1312471791.09627581,0.03887125,-0.01152400,-0.99917777
1312471791.14360046,0.03872358,-0.01176481,-0.99918070
1312471791.19595575,0.03858919,-0.01160450,-0.99918778
1312471791.24329710,0.03846321,-0.01182499,-0.99919005
1312471791.29635000,0.03832378,-0.01180867,-0.99919560
1312471791.34332967,0.03870056,-0.01172642,-0.99918204
1312471791.39643478,0.03881599,-0.01179157,-0.99917680
1312471791.44431925,0.03870599,-0.01159292,-0.99918339
1312471791.49530196,0.03859727,-0.01176374,-0.99918560
1312471791.54332185,0.03872386,-0.01158262,-0.99918282
1312471791.59642720,0.03949837,-0.01205852,-0.99914687
1312471791.64332747,0.03937277,-0.01202598,-0.99915222
1312471791.69642425,0.03949502,-0.01190179,-0.99914888
1312471791.74340820,0.03966402,-0.01194386,-0.99914169
1312471791.79643679,0.03970095,-0.01192129,-0.99914049
1312471791.84341931,0.04049441,-0.01326994,-0.99909164
1312471791.89527011,0.04028935,-0.01314212,-0.99910162
1312471791.94341993,0.04039403,-0.01303607,-0.99909879
1312471791.99540973,0.04052947,-0.01274547,-0.99909705
1312471792.04434061,0.04049199,-0.01273122,-0.99909875
1312471792.08444285,0.04036055,-0.01186907,-0.99911468
1312471792.14339066,0.04050890,-0.01175116,-0.99911007
1312471792.19643283,0.04035646,-0.01181712,-0.99911546
1312471792.23546720,0.04058476,-0.01158359,-0.99910895
1312471792.29531860,0.04069431,-0.01141308,-0.99910646
1312471792.33661914,0.04075350,-0.01166777,-0.99910110
1312471792.38843417,0.04082641,-0.01161722,-0.99909872
1312471792.43667245,0.04081995,-0.01172792,-0.99909769
1312471792.48816848,0.04038176,-0.01173296,-0.99911543
1312471792.53541756,0.04043891,-0.01177554,-0.99911262
1312471792.59643364,0.04017011,-0.01131952,-0.99912874
1312471792.63632822,0.04014260,-0.01121496,-0.99913102
1312471792.68741369,0.04032876,-0.01110249,-0.99912478
1312471792.73657060,0.04002146,-0.01102667,-0.99913798
1312471792.78443384,0.03991391,-0.01088011,-0.99914389
1312471792.83617568,0.04015632,-0.01116806,-0.99913099
1312471792.88742852,0.03984633,-0.01124988,-0.99914249
1312471792.93667150,0.03996467,-0.01114623,-0.99913892
1312471792.98742509,0.03968976,-0.01137184,-0.99914734
1312471793.03683448,0.03975881,-0.01123816,-0.99914611
1312471793.08730054,0.04001015,-0.01118416,-0.99913668
1312471793.14329982,0.04003970,-0.01114666,-0.99913591
1312471793.18442655,0.03994704,-0.01123035,-0.99913869
1312471793.23535633,0.03973725,-0.01105985,-0.99914895
1312471793.28434634,0.03972205,-0.01117988,-0.99914822
1312471793.33630753,0.04051072,-0.01162391,-0.99911149
1312471793.38742924,0.04027250,-0.01177619,-0.99911934
1312471793.43640113,0.04010940,-0.01185909,-0.99912492
1312471793.48430419,0.04035854,-0.01191864,-0.99911417
1312471793.53632283,0.04048174,-0.01176710,-0.99911099
1312471793.58441639,0.04083180,-0.01234064,-0.99908982
1312471793.63608217,0.04061225,-0.01237667,-0.99909833
1312471793.68431783,0.04088414,-0.01243777,-0.99908648
1312471793.73560333,0.04099601,-0.01232685,-0.99908327
1312471793.78727412,0.04098984,-0.01247504,-0.99908168
1312471793.83630538,0.04165287,-0.01277994,-0.99905040
1312471793.88439727,0.04181105,-0.01298902,-0.99904110
1312471793.93703127,0.04171568,-0.01274098,-0.99904828
1312471793.98442626,0.04146505,-0.01254426,-0.99906120
1312471794.03571796,0.04167715,-0.01269141,-0.99905052
1312471794.08442831,0.04190617,-0.01299078,-0.99903709
1312471794.14443254,0.04176353,-0.01306803,-0.99904206
1312471794.18444157,0.04174602,-0.01288317,-0.99904519
1312471794.23631787,0.04203345,-0.01270663,-0.99903540
1312471794.28740263,0.04213155,-0.01299444,-0.99902757
1312471794.33632874,0.04220908,-0.01228432,-0.99903328
1312471794.38443184,0.04230137,-0.01226179,-0.99902965
1312471794.43633342,0.04223709,-0.01240964,-0.99903054
1312471794.48444033,0.04227651,-0.01248531,-0.99902793
1312471794.53602505,0.04224813,-0.01238818,-0.99903034
1312471794.58442688,0.04182681,-0.01256833,-0.99904582
1312471794.63636184,0.04183454,-0.01278670,-0.99904273
1312471794.68442655,0.04164998,-0.01286382,-0.99904945
1312471794.73633051,0.04157445,-0.01292383,-0.99905182
1312471794.78444052,0.04142309,-0.01260015,-0.99906224
1312471794.83640265,0.04149011,-0.01301909,-0.99905409
1312471794.88430476,0.04161053,-0.01305864,-0.99904857
1312471794.93632698,0.04156932,-0.01300342,-0.99905100
1312471794.98435521,0.04140124,-0.01296411,-0.99905849
1312471795.03638077,0.04126246,-0.01269525,-0.99906769
1312471795.08443689,0.04198333,-0.01297327,-0.99903408
1312471795.13628769,0.04219782,-0.01308933,-0.99902353
1312471795.18475556,0.04221423,-0.01302311,-0.99902370
1312471795.23626065,0.04246583,-0.01301132,-0.99901319
1312471795.28476620,0.04238833,-0.01288682,-0.99901810
1312471795.33633780,0.04229129,-0.01320146,-0.99901810
1312471795.38429570,0.04236228,-0.01324048,-0.99901458
1312471795.43673539,0.04225387,-0.01317590,-0.99902002
1312471795.48463368,0.04232196,-0.01325595,-0.99901608
1312471795.53678417,0.04221153,-0.01332701,-0.99901981
1312471795.58443332,0.04226163,-0.01265692,-0.99902640
1312471795.63530135,0.04225269,-0.01280190,-0.99902494
1312471795.68443465,0.04220530,-0.01280128,-0.99902695
1312471795.73542356,0.04219404,-0.01273808,-0.99902823
1312471795.78443003,0.04209916,-0.01255813,-0.99903451
1312471795.83630323,0.04279064,-0.01248401,-0.99900606
1312471795.88445973,0.04286800,-0.01229777,-0.99900505
1312471795.93532181,0.04295494,-0.01240946,-0.99899994
1312471795.98447323,0.04261104,-0.01248606,-0.99901371
1312471796.03645968,0.04255013,-0.01232451,-0.99901831
1312471796.08846092,0.04197863,-0.01247197,-0.99904066
1312471796.13542509,0.04194102,-0.01234412,-0.99904383
1312471796.18446469,0.04205696,-0.01251519,-0.99903683
1312471796.23631406,0.04219923,-0.01256235,-0.99903024
1312471796.28445458,0.04196827,-0.01230911,-0.99904312
1312471796.33543944,0.04233758,-0.01188754,-0.99903264
1312471796.38441753,0.04250454,-0.01167302,-0.99902808
1312471796.43550205,0.04231854,-0.01164074,-0.99903635
1312471796.48442054,0.04257659,-0.01159966,-0.99902587
1312471796.53643751,0.04256757,-0.01164077,-0.99902577
1312471796.58442855,0.04206157,-0.01268275,-0.99903452
1312471796.63638353,0.04203321,-0.01275432,-0.99903480
1312471796.68530083,0.04194464,-0.01267063,-0.99903959
1312471796.73629332,0.04178666,-0.01240735,-0.99904951
1312471796.78441715,0.04173058,-0.01243327,-0.99905154
1312471796.83655667,0.04093590,-0.01230398,-0.99908601
1312471796.88530731,0.04087053,-0.01219649,-0.99909001
1312471796.93533659,0.04087595,-0.01218526,-0.99908992
1312471796.98516631,0.04129112,-0.01208511,-0.99907407
1312471797.03640747,0.04122143,-0.01215060,-0.99907615
1312471797.08443666,0.04143373,-0.01214376,-0.99906745
1312471797.13634968,0.04134685,-0.01221475,-0.99907019
1312471797.18443847,0.04140221,-0.01200735,-0.99907041
1312471797.23655510,0.04145405,-0.01195442,-0.99906889
1312471797.28443050,0.04161407,-0.01215387,-0.99905983
1312471797.33641052,0.04155781,-0.01188050,-0.99906546
1312471797.38429785,0.04152679,-0.01175400,-0.99906825
1312471797.43662119,0.04160374,-0.01172448,-0.99906540
1312471797.48443675,0.04150098,-0.01181242,-0.99906863
1312471797.53670359,0.04135674,-0.01200019,-0.99907238
1312471797.58443165,0.04153604,-0.01189206,-0.99906623
1312471797.63644719,0.04164909,-0.01188756,-0.99906158
1312471797.68843722,0.04189325,-0.01190295,-0.99905119
1312471797.73669410,0.04197704,-0.01185900,-0.99904819
1312471797.78803372,0.04224158,-0.01184119,-0.99903725
1312471797.83677173,0.04271488,-0.01184282,-0.99901711
1312471797.88813853,0.04292892,-0.01172682,-0.99900930
1312471797.93629599,0.04285632,-0.01165047,-0.99901331
1312471797.98731995,0.04258371,-0.01167584,-0.99902468
1312471798.03536916,0.04253968,-0.01184321,-0.99902458
1312471798.08391356,0.04263725,-0.01209551,-0.99901740
1312471798.13628316,0.04267281,-0.01231443,-0.99901321
1312471798.18413734,0.04238741,-0.01206894,-0.99902835
1312471798.23678255,0.04220429,-0.01235491,-0.99903261
1312471798.28439093,0.04234352,-0.01255012,-0.99902428
1312471798.33631635,0.04213524,-0.01223069,-0.99903705
1312471798.38446379,0.04185234,-0.01217309,-0.99904965
1312471798.43624544,0.04204946,-0.01204974,-0.99904287
1312471798.48443484,0.04178264,-0.01204027,-0.99905417
1312471798.53632069,0.04169689,-0.01185676,-0.99905995
1312471798.58427954,0.04193829,-0.01146832,-0.99905438
1312471798.63534570,0.04210540,-0.01109969,-0.99905152
1312471798.68444085,0.04226868,-0.01102974,-0.99904540
1312471798.73662090,0.04221143,-0.01096600,-0.99904852
1312471798.78429055,0.04234850,-0.01112065,-0.99904101
1312471798.83663011,0.04261661,-0.01146712,-0.99902569
1312471798.88432908,0.04273555,-0.01166878,-0.99901827
1312471798.93534231,0.04272890,-0.01152321,-0.99902025
1312471798.98845530,0.04272394,-0.01153542,-0.99902032
1312471799.03650355,0.04260812,-0.01119528,-0.99902914
1312471799.08445406,0.04282459,-0.01159452,-0.99901533
1312471799.13653588,0.04287430,-0.01133556,-0.99901617
1312471799.18434548,0.04284702,-0.01117924,-0.99901910
1312471799.23661375,0.04270241,-0.01110836,-0.99902608
1312471799.28442740,0.04253995,-0.01104677,-0.99903369
1312471799.33639765,0.04313521,-0.01098763,-0.99900882
1312471799.38446236,0.04330962,-0.01087266,-0.99900253
1312471799.43644261,0.04344760,-0.01092208,-0.99899600
1312471799.48432302,0.04329461,-0.01108169,-0.99900089
1312471799.53560615,0.04329945,-0.01123593,-0.99899895
1312471799.59642506,0.04310310,-0.01115705,-0.99900833
1312471799.63668156,0.04301513,-0.01116468,-0.99901204
1312471799.68434072,0.04295693,-0.01115839,-0.99901461
1312471799.73557973,0.04297772,-0.01108398,-0.99901454
1312471799.78436303,0.04287498,-0.01092219,-0.99902074
1312471799.83664870,0.04301395,-0.01113694,-0.99901240
1312471799.88736320,0.04284660,-0.01103631,-0.99902071
1312471799.93635678,0.04273492,-0.01113867,-0.99902435
1312471799.98442745,0.04260703,-0.01096964,-0.99903169
1312471800.03660464,0.04283620,-0.01098687,-0.99902170
1312471800.08434033,0.04262501,-0.01089402,-0.99903175
1312471800.13931489,0.04262479,-0.01076709,-0.99903313
1312471800.18793583,0.04256851,-0.01060370,-0.99903728
1312471800.23629904,0.04255898,-0.01065094,-0.99903718
1312471800.28442955,0.04268322,-0.01068739,-0.99903149
1312471800.33637762,0.04295582,-0.01061482,-0.99902058
1312471800.38442683,0.04327440,-0.01065596,-0.99900639
1312471800.44333577,0.04330445,-0.01083360,-0.99900318
1312471800.49533796,0.04321487,-0.01075542,-0.99900791
1312471800.53574872,0.04302604,-0.01069769,-0.99901668
1312471800.58443594,0.04315947,-0.01104786,-0.99900711
1312471800.64360595,0.04335945,-0.01108355,-0.99899805
1312471800.68443346,0.04308791,-0.01107874,-0.99900986
1312471800.74335051,0.04324817,-0.01125283,-0.99900099
1312471800.78444552,0.04324581,-0.01154879,-0.99899771
1312471800.84330845,0.04278672,-0.01130085,-0.99902031
1312471800.88442850,0.04266007,-0.01130231,-0.99902571
1312471800.93669391,0.04261216,-0.01149865,-0.99902552
1312471800.98442388,0.04252929,-0.01149677,-0.99902907
1312471801.03676844,0.04288643,-0.01159703,-0.99901264
1312471801.08443356,0.04293102,-0.01170588,-0.99900946
1312471801.13626933,0.04293719,-0.01155746,-0.99901092
1312471801.18845081,0.04304717,-0.01150619,-0.99900678
1312471801.23578382,0.04282155,-0.01156228,-0.99901583
1312471801.29541421,0.04251863,-0.01174775,-0.99902660
1312471801.34443569,0.04217825,-0.01150780,-0.99904383
1312471801.38436246,0.04219325,-0.01173678,-0.99904053
1312471801.44437528,0.04234660,-0.01170157,-0.99903445
1312471801.48443937,0.04227789,-0.01150336,-0.99903967
1312471801.53632760,0.04239979,-0.01143856,-0.99903524
1312471801.58442783,0.04329341,-0.01177815,-0.99899297
1312471801.64451528,0.04347209,-0.01171941,-0.99898590
1312471801.68443513,0.04356862,-0.01128271,-0.99898672
1312471801.74442554,0.04359489,-0.01123229,-0.99898615
1312471801.78433514,0.04341979,-0.01128566,-0.99899317
1312471801.84434223,0.04299295,-0.01084020,-0.99901656
1312471801.88432860,0.04301731,-0.01095109,-0.99901431
1312471801.93674207,0.04290496,-0.01070412,-0.99902181
1312471801.98362947,0.04295990,-0.01108636,-0.99901529
1312471802.04335070,0.04290946,-0.01124817,-0.99901564
1312471802.09643722,0.04276326,-0.01100462,-0.99902463
1312471802.14029717,0.04256343,-0.01099002,-0.99903332
1312471802.18744588,0.04265024,-0.01098333,-0.99902969
1312471802.23631454,0.04255519,-0.01113571,-0.99903206
1312471802.28843427,0.04231912,-0.01087775,-0.99904493
1312471802.33631516,0.04212160,-0.01115060,-0.99905027
1312471802.38346624,0.04198019,-0.01137690,-0.99905367
1312471802.43633056,0.04192041,-0.01128608,-0.99905721
1312471802.48450804,0.04190826,-0.01125711,-0.99905804
1312471802.53545642,0.04196416,-0.01112219,-0.99905721
1312471802.58465481,0.04140404,-0.01156808,-0.99907552
1312471802.64425826,0.04146514,-0.01173383,-0.99907105
1312471802.68336678,0.04171925,-0.01141014,-0.99906422
1312471802.73676848,0.04154632,-0.01131717,-0.99907248
1312471802.79245996,0.04156322,-0.01131053,-0.99907185
1312471802.83553863,0.04213114,-0.01127081,-0.99904852
1312471802.89638925,0.04203074,-0.01128218,-0.99905262
1312471802.93530750,0.04192474,-0.01131927,-0.99905665
1312471802.98435092,0.04173848,-0.01167146,-0.99906040
1312471803.03637052,0.04186114,-0.01175019,-0.99905434
1312471803.09530354,0.04161018,-0.01205539,-0.99906119
1312471803.13709283,0.04189301,-0.01211337,-0.99904867
1312471803.18431544,0.04221018,-0.01217419,-0.99903458
1312471803.23530793,0.04234568,-0.01224271,-0.99902801
1312471803.28509307,0.04258613,-0.01228961,-0.99901721
1312471803.34391141,0.04295452,-0.01185291,-0.99900672
1312471803.38733745,0.04269921,-0.01186373,-0.99901753
1312471803.44333220,0.04268369,-0.01194382,-0.99901724
1312471803.49631929,0.04241803,-0.01201104,-0.99902775
1312471803.54444790,0.04259688,-0.01194851,-0.99902089
1312471803.59642744,0.04213719,-0.01191398,-0.99904080
1312471803.64477086,0.04207823,-0.01186746,-0.99904384
1312471803.68742371,0.04219415,-0.01194215,-0.99903806
1312471803.73628521,0.04238905,-0.01198140,-0.99902934
1312471803.79630637,0.04246008,-0.01197849,-0.99902635
1312471803.84334755,0.04246742,-0.01148522,-0.99903184
1312471803.88732815,0.04256206,-0.01147612,-0.99902791
1312471803.94334245,0.04277776,-0.01143758,-0.99901914
1312471803.99636126,0.04299146,-0.01131015,-0.99901142
1312471804.04627681,0.04287539,-0.01115726,-0.99901813
1312471804.09541798,0.04227839,-0.01125181,-0.99904251
1312471804.14370799,0.04234582,-0.01139453,-0.99903804
1312471804.19541359,0.04243299,-0.01131706,-0.99903522
1312471804.24487543,0.04230288,-0.01129415,-0.99904099
1312471804.29530311,0.04221154,-0.01162784,-0.99904103
1312471804.34340668,0.04199613,-0.01173894,-0.99904881
1312471804.39533401,0.04198740,-0.01163280,-0.99905042
1312471804.44330239,0.04192435,-0.01186329,-0.99905035
1312471804.49542212,0.04171393,-0.01190795,-0.99905863
1312471804.54341602,0.04162796,-0.01186722,-0.99906270
1312471804.59541798,0.04131698,-0.01212115,-0.99907256
1312471804.64430976,0.04116784,-0.01218211,-0.99907798
1312471804.69533324,0.04117895,-0.01226643,-0.99907649
1312471804.74349713,0.04095933,-0.01211485,-0.99908737
1312471804.79636216,0.04133394,-0.01220705,-0.99907082
1312471804.84328675,0.04208508,-0.01233243,-0.99903792
1312471804.89646173,0.04188905,-0.01224386,-0.99904724
1312471804.94428372,0.04198832,-0.01213771,-0.99904437
1312471804.99641895,0.04213997,-0.01216264,-0.99903768
1312471805.04344416,0.04200072,-0.01230650,-0.99904179
1312471805.09530997,0.04180020,-0.01242032,-0.99904879
1312471805.14439845,0.04175871,-0.01237030,-0.99905114
1312471805.19533849,0.04183445,-0.01244465,-0.99904705
1312471805.24335909,0.04161959,-0.01229115,-0.99905792
1312471805.29644752,0.04190424,-0.01244823,-0.99904408
1312471805.34344339,0.04133690,-0.01248403,-0.99906727
1312471805.39543247,0.04135413,-0.01255032,-0.99906573
1312471805.44328594,0.04149481,-0.01258934,-0.99905940
1312471805.49532318,0.04130399,-0.01257143,-0.99906753
1312471805.54440165,0.04116694,-0.01232437,-0.99907627
1312471805.59629726,0.04114944,-0.01269346,-0.99907237
1312471805.64430404,0.04099523,-0.01293301,-0.99907564
1312471805.69632602,0.04095986,-0.01309581,-0.99907497
1312471805.74537468,0.04109012,-0.01304281,-0.99907031
1312471805.79637337,0.04094558,-0.01312416,-0.99907518
1312471805.84431601,0.04070592,-0.01381426,-0.99907567
1312471805.89634252,0.04072538,-0.01362510,-0.99907747
1312471805.94328976,0.04095395,-0.01370893,-0.99906698
1312471805.99533772,0.04102995,-0.01385747,-0.99906182
1312471806.04436779,0.04122278,-0.01413571,-0.99904998
1312471806.09643126,0.04165319,-0.01445159,-0.99902761
1312471806.14336753,0.04189444,-0.01451764,-0.99901656
1312471806.19643974,0.04179469,-0.01453817,-0.99902044
1312471806.24433541,0.04172393,-0.01436816,-0.99902586
1312471806.29628372,0.04162641,-0.01459564,-0.99902663
1312471806.34430790,0.04137002,-0.01478108,-0.99903455
1312471806.39529157,0.04155895,-0.01458683,-0.99902957
1312471806.44333863,0.04109054,-0.01435225,-0.99905234
1312471806.49644184,0.04112433,-0.01435781,-0.99905087
1312471806.54395127,0.04099281,-0.01415629,-0.99905915
1312471806.59642744,0.04095833,-0.01463946,-0.99905360
1312471806.64331317,0.04052498,-0.01471219,-0.99907021
1312471806.69529605,0.04054413,-0.01446658,-0.99907302
1312471806.74340820,0.04039002,-0.01472125,-0.99907554
1312471806.79533386,0.04044674,-0.01491509,-0.99907037
1312471806.84435248,0.03991627,-0.01557978,-0.99908156
1312471806.89642715,0.03994717,-0.01555432,-0.99908072
1312471806.94442773,0.03977909,-0.01555059,-0.99908749
1312471806.99642968,0.03990874,-0.01541368,-0.99908444
1312471807.04432011,0.03995419,-0.01524996,-0.99908513
1312471807.09631610,0.03969570,-0.01463443,-0.99910464
1312471807.14383483,0.03980657,-0.01471751,-0.99909901
1312471807.19556117,0.03981576,-0.01495555,-0.99909511
1312471807.24332452,0.03975421,-0.01503811,-0.99909632
1312471807.29541063,0.03962369,-0.01498972,-0.99910223
1312471807.34442282,0.03999434,-0.01513804,-0.99908523
1312471807.39631200,0.03992393,-0.01526208,-0.99908616
1312471807.44336534,0.04016651,-0.01516247,-0.99907795
1312471807.49630308,0.03998312,-0.01533104,-0.99908273
